Regional Weather Roundup
Issued by NWS

Home | Current Version | Previous Version | Graphics & Text | Print | Product List | Glossary Off
Versions: 1 2 3 4 5 6 7 8 9 10 11 12 13 14 15 16 17 18 19 20 21 22 23 24 25 26 27 28 29 30 31 32 33 34 35 36 37 38 39 40 41 42 43 44 45 46 47 48 49 50

000
ASUS43 KFSD 212110
RWRSD

WEATHER ROUNDUP FOR SOUTH DAKOTA
NATIONAL WEATHER SERVICE SIOUX FALLS SD
400 PM CDT SUN SEP 21 2014

NOTE: "FAIR" INDICATES FEW OR NO CLOUDS BELOW 12,000 FEET WITH NO
SIGNIFICANT WEATHER AND/OR OBSTRUCTIONS TO VISIBILITY.


SDZ001>005-009-010-012>017-212200-
NORTHWEST AND NORTH CENTRAL SOUTH DAKOTA

CITY           SKY/WX    TMP DP  RH WIND       PRES   REMARKS
BUFFALO          N/A     73  32  22 VRB3      30.21F
FAITH            N/A     71  39  31 VRB3      30.27F
MOBRIDGE       SUNNY     73  43  33 N5        30.23F
$$

SDZ012>016-024>037-041>051-057-063-072>074-212200-
SOUTHWEST AND SOUTH CENTRAL SOUTH DAKOTA

CITY           SKY/WX    TMP DP  RH WIND       PRES   REMARKS
RAPID CTY ARPT SUNNY     72  36  26 E3        30.28F
PIERRE         SUNNY     73  42  32 NW8       30.24F
CUSTER         SUNNY     68  34  28 VRB6G17   30.36S
ELLSWORTH AFB  SUNNY     73  38  28 E5        30.28F
PHILIP         SUNNY     74  32  21 NE7       30.26F
PINE RIDGE     SUNNY     74  40  29 NE5       30.29F
WINNER         FAIR      75  38  26 N8        30.27S
$$

SDZ004>011-016>023-039-040-212200-
NORTHEAST SOUTH DAKOTA

CITY           SKY/WX    TMP DP  RH WIND       PRES   REMARKS
ABERDEEN       MOSUNNY   71  46  40 NW8       30.23F
WATERTOWN      MOSUNNY   67  43  41 NW14      30.23S
SISSETON         N/A     69  48  47 N14G20    30.21S
$$

SDZ017-020-022-023-036>040-048>070-212200-
SOUTHEAST SOUTH DAKOTA

CITY           SKY/WX    TMP DP  RH WIND       PRES   REMARKS
SIOUX FALLS    MOSUNNY   71  45  39 N12       30.22F
HURON          MOSUNNY   70  44  39 N14G21    30.23F
CHAMBERLAIN    SUNNY     72  41  32 N7        30.25F
MITCHELL       SUNNY     72  43  35 N14       30.24F
YANKTON        MOSUNNY   70  45  40 NW13G21   30.24S
$$

ABBREVIATIONS USED IN REMARKS
   TC - TEMPERATURE IN CELSIUS
  WCI - WIND CHILL INDEX
   HX - HEAT INDEX
  VSB - VISIBILITY



USA.gov is the U.S. government's official web portal to all federal, state and local government web resources and services.